This demonstration page uses our WeatherBlox Daily Observations layout. Learn more.

Left ArrowRight Arrow

Hourly Observations for March 10, 2019

Temp ( °F °C ) Dew Point ( °F °C ) Humidity (%) Winds ( mph kmh ) Pressure ( in mb ) Visibility ( mi km ) Precip ( " mm )
12:51 am 00:51 Clear 41 5 23 -5 49 49 N N/A 29.86 1011 10 16 N/A
1:51 am 01:51 Clear 43 6.1 24 -4.4 47 47 N N/A 29.86 1011 10 16 N/A
2:51 am 02:51 Clear 38 3.3 23 -5 55 55 N N/A 29.86 1011 10 16 N/A
3:51 am 03:51 Clear 40 4.4 24 -4.4 53 53 SSE 5 7 29.85 1011 10 16 N/A
4:51 am 04:51 Clear 40 4.4 25 -3.9 55 55 ENE 5 7 29.85 1011 10 16 N/A
5:51 am 05:51 Clear 38 3.3 25 -3.9 60 60 N N/A 29.87 1012 10 16 N/A
6:51 am 06:51 Sunny 38 3.3 25 -3.9 60 60 SE 7 11 29.88 1012 10 16 N/A
7:51 am 07:51 Sunny 44 6.7 25 -3.9 47 47 SSE 10 17 29.88 1012 10 16 N/A
8:51 am 08:51 Sunny 52 11.1 21 -6.1 30 30 ESE 12 19 29.88 1012 10 16 N/A
9:51 am 09:51 Sunny 57 13.9 21 -6.1 25 25 ESE 10 17 29.88 1012 10 16 N/A
10:51 am 10:51 Sunny 63 17.2 25 -3.9 24 24 E 15 24 29.87 1011 10 16 N/A
11:51 am 11:51 Mostly Sunny 65 18.3 30 -1.1 27 27 SE 12 19 29.86 1011 10 16 N/A
12:51 pm 12:51 Sunny 68 20 32 undefined 26 26 SSE 16 26 29.83 1010 10 16 N/A
1:51 pm 13:51 Partly Cloudy 66 18.9 33 0.6 29 29 SE 10 17 29.80 1009 10 16 N/A
2:51 pm 14:51 Cloudy 67 19.4 35 1.7 31 31 SE 13 20 29.79 1009 10 16 N/A
3:51 pm 15:51 Cloudy 69 20.6 38 3.3 32 32 SE 17 28 29.77 1008 10 16 N/A
4:51 pm 16:51 Cloudy 64 17.8 42 5.6 45 45 S 16 26 29.79 1009 9 14 N/A
5:51 pm 17:51 Cloudy with Light Rain 65 18.3 41 5 42 42 S 16 26 29.81 1009 10 16 N/A
6:51 pm 18:51 Cloudy 64 17.8 40 4.4 41 41 S 10 17 29.82 1010 10 16 N/A
7:51 pm 19:51 Cloudy 62 16.7 40 4.4 44 44 SE 13 20 29.82 1010 10 16 N/A
8:51 pm 20:51 Mostly Clear 59 15 39 3.9 48 48 SE 13 20 29.83 1010 10 16 N/A
9:51 pm 21:51 Mostly Clear 57 13.9 39 3.9 51 51 SSE 13 20 29.85 1011 10 16 N/A
10:51 pm 22:51 Clear 57 13.9 38 3.3 49 49 SSE 12 19 29.86 1011 10 16 N/A
11:51 pm 23:51 Clear 54 12.2 36 2.2 51 51 SSE 13 20 29.85 1011 10 16 N/A

Powered by AerisWeather